User: anonymous   Login
Location: Ostrava
(49.8330°N, 18.2830°E)
Time: 06:29:54
(UTC+01:00)
Language:

Iridium 7 - Orbit

View from above orbital plane
View from above orbital plane
View from above satellite
View from above satellite

Ground track
Ground track

The orbit data is extracted from the following two-line orbital elements,

1 24793U 97020B   16039.50169512  .00000304  00000-0  10155-3 0  9993
2 24793  86.4012 165.7396 0002022  98.1168 262.0258 14.34220867982296
Epoch (UTC): 08 February 2016 12:02:26
Eccentricity: 0.0002022
inclination: 86.4012°
perigee height: 776 km
apogee height: 779 km
right ascension of ascending node: 165.7396°
argument of perigee: 98.1168°
revolutions per day: 14.34220867
mean anomaly at epoch: 262.0258°
orbit number at epoch: 98229

The dashed part of the orbit path shows where the satellite is in the earth's shadow,  

DLR